Regional Weather Roundup
Issued by NWS Mobile, AL

Home | Current Version | Previous Version | Text Only | Print | Product List | Glossary On
Versions: 1 2 3 4 5 6 7 8 9 10 11 12 13 14 15 16 17 18 19 20 21 22 23 24 25 26 27 28 29 30 31 32 33 34 35 36 37 38 39 40 41 42 43 44 45 46 47 48 49 50
000
ASUS44 KMOB 261713
RWRMOB
REGIONAL WEATHER ROUNDUP
NATIONAL WEATHER SERVICE MOBILE AL
1200 PM CDT WED JUL 26 2017

NOTE: "FAIR" INDICATES FEW OR NO CLOUDS BELOW 12,000 FEET WITH NO
      SIGNIFICANT WEATHER AND/OR OBSTRUCTIONS TO VISIBILITY.

  * THESE STATIONS ARE PART OF THE UNIVERSITY OF SOUTH ALABAMA
    MESONET AND ARE NOT UNDER NWS OR FAA QUALITY CONTROL.

ALZ061>064-261800-
COASTAL ALABAMA

CITY           SKY/WX    TMP DP  RH WIND       PRES   REMARKS
MOBILE REG APT PTSUNNY   89  74  60 NE7       30.12F HX  98
BROOKLEY FIELD SUNNY     88  79  74 VRB5      30.12F HX 103
USA CAMPUS*      N/A     90  75  62 CALM      30.11F HX 100
DOG RIVER*     NOT AVBL


CITY           SKY/WX    TMP DP  RH WIND       PRES   REMARKS
GULF SHORES    MOSUNNY   87  77  72 N3        30.10F HX  98

$$

ALZ051>060-261800-
INTERIOR SOUTHWEST AND SOUTH CENTRAL ALABAMA

CITY           SKY/WX    TMP DP  RH WIND       PRES   REMARKS
GREENVILLE     MOSUNNY   89  74  60 N6        30.11F HX  98
EVERGREEN      MOSUNNY   88  77  69 VRB3      30.12F HX 100
ATMORE*        NOT AVBL
ANDALUSIA/OPP  MOSUNNY   89  77  67 W6        30.11F HX 101
ANDALUSIA*       N/A     84  77  79 W3        30.13F
FLORALA APT    PTSUNNY   88  75  65 NW5       30.12F HX  97
FLORALA*         N/A     88  77  70 SW6       30.83F HX 100

$$

FLZ001>006-261800-
WESTERN FLORIDA PANHANDLE

CITY           SKY/WX    TMP DP  RH WIND       PRES   REMARKS
PENSACOLA      PTSUNNY   90  74  59 N6        30.10F HX  99
NAS PENSACOLA  PTSUNNY   87  74  64 VRB3      30.09F HX  95
MILTON         PTSUNNY   86  76  71 NW6       30.10F HX  96
WHTNG S FIELD  MOSUNNY   90  78  68 N7        30.10F HX 104


CITY           SKY/WX    TMP DP  RH WIND       PRES   REMARKS
JAY*             N/A     86  75  70 N3        30.10F HX  95
DUKE FIELD     PTSUNNY   88  74  63 N5        30.10F HX  97
CRESTVIEW      SUNNY     91  75  59 N5        30.12F HX 101
VALPARAISO     PTSUNNY   91  73  55 CALM      30.09F HX  98
DESTIN         SUNNY     91  75  59 N5        30.09F HX 101

$$

MSZ076-079-261800-
INTERIOR SOUTHEAST MISSISSIPPI

CITY           SKY/WX    TMP DP  RH WIND       PRES   REMARKS
LEAKESVILLE*   NOT AVBL
AGRICOLA*        N/A     88  77  70 S6        30.11F HX 100

$$

MARINE OBSERVATIONS

STATION/POSITION TIME  TEMP    WIND        PRES    WAVE
                       AIR SEA DIR/SP/G            HT/PER
                 (UTC) (F)     (DEG/KT/KT) (MB)    (FT/S)
PASCAGOULA       1648   86      20/  7/ 10 1019.7F
PETIT BOIS ISLND 1648   85      70/  5/  7 1020.6F
KATRINA CUT      1630   82      60/  4     1019.6F
CEDAR POINT      1630   82      60/  8     1020.0F
E DAUPHIN ISLAND 1600   80      10/  6/  7 1019.7F
MIDDLE BAY LIGHT 1630   83     350/  8     1020.0F
USCG MOBILE BAY  1648   86 84   50/  6/  9 1020.2F
STATE DOCKS      1642   91 86              1019.4F
MEAHER PARK      1630   85     350/  4     1020.0F
FORT MORGAN      1648   82     360/  7/  9   N/A
12 S ORANGE BCH  1550   80 85  360/  4/  4 1019.9F   1
PENSACOLA BAY    1642   87 85              1019.5F
64 S DAUPHIN ISL 1650   82 86   CALM  /  2 1019.8F   2/ 3
67 S FORT MORGAN 1630   80        CALM     1020.0F

$$

SELECTED LOCATIONS ACROSS THE REGION

CITY           SKY/WX    TMP DP  RH WIND       PRES   REMARKS
NEW ORLEANS    MOSUNNY   90  76  63 NW9       30.12F HX 101
GULFPORT       MOSUNNY   90  75  61 NE10      30.10F HX 100
PASCAGOULA AP  MOSUNNY   91  74  57 NE7       30.10F HX 100
PASCAGOULA*      N/A     88  75  66 NE6         N/A  HX  97
HATTIESBURG    MOSUNNY   89  76  65 VRB5      30.13F HX 100
LAUREL         SUNNY     89  77  67 N8        30.14F HX 101
MERIDIAN       SUNNY     92  75  57 NW5       30.13F HX 103
JACKSON        SUNNY     89  75  63 CALM      30.14F HX  99
MONTGOMERY     SUNNY     93  74  53 VRB3      30.10F HX 103
TROY           PTSUNNY   89  77  67 VRB3      30.11F HX 101
ASHFORD*         N/A     84  77  79 W3        30.13F
DOTHAN         PTSUNNY   88  78  72 VRB5      30.13F HX 101
PANAMA CITY    MOSUNNY   89  74  60 CALM      30.09F HX  98

$$




USA.gov is the U.S. government's official web portal to all federal, state and local government web resources and services.